Showing default

TOMORROW-S2, 60485

Orbit data source: Space-Track

TOMORROW-S2, 60485 is a payload satellite owned by Tomorrow.io (US) in SSO that was launched on Fri, 16 Aug 2024 UTC via an FALCON 9 launch vehicle from the Air Force Western Test Range (AFWTR). Payload-class satellites include a variety of spacecraft equipped with specific instruments for various scientific and technological missions. These include communications satellites like Starlink; space stations such as the ISS; scientific satellites like the Hubble; Earth observation satellites from companies like Planet Labs, Umbra, and HawkEye 360; GPS; miniature CubeSats for education and research; and military/defense satellites.

Loading next visibility...
Identifier
60485, 2024-149T
Orbit
SSO
Country
Flag of USUS
Related business
Manufacturer
Blue Canyon
Mission
Operational Commercial Weather
Bus & Motor
CUBESAT 6U, Unknown motor
Mass
12 kg wet, 12 kg dry
Launch date (UTC)
2024-08-16 (2 years ago)
Launch vehicle
FALCON 9
Launch site
Air Force Western Test Range (AFWTR)
Object type
Payload
Rocket body
Debris
Shape & HBR
Box + 2 Pan, 1.0 m
Radar Cross Section
0.138 m², Medium (>0.1 m² and < 1m²)

Expand to show TLE details & history
Last TLE update: 14 hours ago

TLE from 14 hours ago
0 TOMORROW-S2
1 60485U 24149T   26144.66166450  .00006514  00000-0  21101-3 0  9998
2 60485  97.3815 225.6814 0002940  31.6183 328.5235 15.32353690 98487
Epoch: 2026-05-24T15:52Z
TLE epoch observation values (Epoch: 2026-05-24T15:52:47.812Z)
Latitude
-0.00005°
Longitude
105.22159°
Altitude
470.183 km
Speed
7.632 km/s
True Right ascension
15h 02m 43s
True Declination
0° 00' 00"
Sunlit
Object was in full shadow at epoch
Visualization orbit readout
Latitude
Unknown
Longitude
Unknown
Altitude
Unknown
Speed
Unknown
Apparent Right ascension
Unknown
Apparent Declination
Unknown
Sunlit
N/A
Visualization observer readout
Local Sidereal Time
14:39:53
Azimuth
Unknown
Elevation
Unknown
Doppler factor
Unknown
Orbital elements
Apogee altitude
467.752 km
Perigee altitude
463.728 km
Semi-major axis
6,843.877 km
Eccentricity
0.00029
Inclination
97.3815°
RAAN
225.6814°
Arg. of periapsis
31.6183°
True anomaly
328.5059°
Mean anomaly
328.5235°
Eccentric anomaly
328.5147°
Mean motion
3.83345 °/min
Orbital period
93.91 mins
BSTAR
0.00021101
Loading maneuver chart data...
Computing Atmospheric mass density...
Loading historical data...
Loading historical data...
Loading historical data...
Loading historical data...
Loading historical data...
Loading historical data...
Loading historical data...

Documentation

Showing up to 5 results
|